GEFSMW_500_meanwind_024.txt.gz
Wind_Speed
33 36 40 40 34 28 27 28 31 31 33 35 37 38 39 40 40 41 39 36 36 34 34 33 35 37 40 41 42 45 47 49 51 53 55 56 58 60 61 63 64 65 66
34 38 43 46 43 38 33 32 34 35 37 39 40 42 43 44 44 45 42 40 39 37 36 37 37 39 42 43 45 48 50 53 55 57 58 58 59 61 63 65 66 66 67
38 41 45 48 46 40 37 35 36 38 40 42 43 45 47 47 47 46 44 44 42 39 37 37 39 42 46 47 49 50 52 54 56 57 58 59 59 60 62 65 66 67 67
39 40 45 48 46 43 40 38 38 40 42 43 45 47 48 48 48 47 46 46 43 39 38 39 42 45 48 49 51 52 53 55 56 57 59 59 60 60 61 63 65 66 67
38 38 41 44 44 42 40 39 39 41 43 45 46 47 49 48 48 47 47 47 45 43 43 43 45 47 49 50 51 53 55 55 57 59 60 61 62 63 63 64 66 67 68
35 37 37 37 38 39 39 39 40 42 44 46 46 47 48 48 48 49 49 48 47 45 45 45 47 48 50 51 52 54 56 57 59 61 62 62 63 64 65 67 68 69 69
37 38 38 36 36 37 38 39 41 43 45 46 47 47 48 49 49 49 48 48 48 48 47 48 49 52 52 53 55 57 59 60 61 61 61 62 63 66 68 70 70 69 67
40 40 39 37 35 36 37 39 40 43 45 46 47 48 48 48 48 48 47 47 49 49 49 51 53 54 55 56 58 59 60 60 60 60 61 63 66 69 70 70 69 66 64
31 30 32 33 34 35 37 38 39 40 42 43 44 46 46 46 46 47 47 48 50 51 52 55 57 57 57 58 59 60 60 60 60 62 64 67 69 70 70 69 68 67 65
27 28 29 31 33 35 35 36 36 38 39 40 42 43 44 44 45 45 47 49 51 54 56 58 58 58 58 58 60 60 60 61 63 65 67 69 70 70 69 68 68 68 68
33 34 32 30 32 33 34 35 36 38 40 41 43 44 46 46 47 48 50 52 54 56 58 59 59 59 59 60 61 62 62 63 65 66 68 69 70 69 69 69 69 68 68
37 34 31 30 31 33 34 36 38 40 41 43 44 46 47 48 49 50 53 55 57 57 58 59 59 60 62 62 62 62 63 64 66 68 69 69 69 69 68 68 67 65 63
30 28 30 32 33 34 36 38 40 42 44 45 46 48 50 51 52 54 56 58 58 59 60 60 62 64 65 63 61 61 62 64 67 68 68 68 68 67 66 64 60 56 52
21 25 30 33 35 37 39 41 43 45 47 49 50 52 54 55 56 57 58 59 61 61 63 64 65 65 62 59 59 60 63 65 66 66 67 66 65 63 59 54 49 46 42
34 34 36 39 41 43 44 46 48 50 52 53 54 55 55 56 57 58 60 61 63 64 66 64 61 60 57 56 58 61 62 64 64 64 64 62 58 53 49 45 42 39 36
50 48 47 47 47 48 49 51 52 54 55 55 55 55 55 57 59 61 63 65 65 64 61 57 54 53 54 56 59 60 61 61 61 60 57 53 49 46 43 40 37 33 30
54 53 52 50 50 49 50 51 52 53 54 54 54 54 56 58 61 65 66 63 60 57 53 50 50 52 54 56 57 58 58 58 56 52 48 44 42 40 37 33 30 27 25
53 53 51 50 49 49 49 49 50 50 51 51 52 55 57 59 61 63 62 59 52 49 47 47 50 52 53 53 54 54 53 50 46 43 41 39 37 34 30 26 23 20 17
51 51 50 49 48 47 47 48 48 48 48 49 52 54 56 59 61 59 55 50 46 45 46 47 49 50 50 50 49 47 44 41 38 37 36 34 30 27 22 18 14 10 9
47 47 47 46 46 45 45 44 44 45 47 49 52 55 57 58 56 52 48 44 44 45 46 46 47 47 46 44 41 38 35 33 32 32 31 28 24 19 14 10 7 5 4
43 43 43 42 40 40 39 40 41 43 46 50 52 53 51 48 45 43 42 42 43 44 44 44 43 41 39 36 33 30 28 27 26 25 23 19 16 11 8 6 5 5 5
37 37 35 34 33 33 35 37 40 44 46 47 47 44 42 41 40 39 40 41 42 42 41 39 36 33 30 28 26 25 24 22 21 18 15 12 9 7 7 7 7 8 8
31 30 29 28 29 31 33 36 39 41 40 39 37 36 35 37 38 39 39 39 38 36 34 31 28 26 24 22 21 21 20 19 16 13 10 7 6 7 8 9 10 10 10
27 26 25 26 28 30 32 34 34 32 31 31 32 33 34 35 36 37 36 34 31 28 25 23 22 21 19 18 18 18 17 16 12 8 6 6 7 9 10 10 10 10 10
22 22 23 25 26 26 25 25 26 27 28 30 32 33 34 34 33 32 29 26 23 21 20 20 19 18 17 16 15 14 13 11 8 5 5 7 9 11 11 11 11 10 9
18 19 19 19 19 20 21 23 24 26 28 30 31 32 31 29 27 24 21 19 18 18 18 18 17 16 15 14 12 11 9 6 4 4 7 10 12 12 12 11 10 10 10

GEFSMW_500_meanwind_030.txt.gz
Wind_Speed
34 36 38 38 37 36 36 36 36 38 40 40 40 38 35 35 34 34 35 36 36 36 38 38 39 37 35 35 35 36 38 41 42 43 44 46 48 50 51 53 54 56 57
36 38 39 40 39 39 39 38 39 41 43 44 43 41 38 36 35 35 37 38 39 39 40 40 39 37 36 35 35 36 37 40 42 43 44 46 48 51 53 55 57 59 60
37 38 39 40 40 40 40 40 42 44 46 47 45 41 38 36 36 37 37 38 39 40 41 40 39 39 39 38 38 38 39 41 43 45 47 48 50 52 55 58 60 61 62
37 37 38 38 38 39 41 42 44 47 48 48 45 40 36 34 35 37 37 38 40 41 40 40 41 41 41 42 41 41 42 44 46 49 51 53 54 55 56 58 60 61 61
37 37 37 36 37 39 41 44 46 48 49 48 43 39 36 34 35 37 39 41 41 42 43 43 44 45 45 45 45 45 46 47 50 52 55 57 59 60 60 59 59 60 60
38 36 35 35 36 39 42 45 47 48 48 47 43 42 40 38 39 41 42 44 45 45 45 46 47 47 48 48 48 48 50 51 54 56 59 61 62 63 63 62 61 61 62
33 32 32 34 37 40 43 45 47 47 48 46 44 44 44 43 43 44 44 45 46 46 47 48 49 49 50 50 50 51 53 55 57 60 62 63 64 64 64 63 63 64 65
29 30 32 35 38 41 43 45 45 45 45 45 45 44 44 44 45 46 46 47 47 48 49 50 50 51 52 52 53 54 57 58 61 63 64 65 66 66 67 68 68 68 67
29 32 35 37 41 43 44 43 44 44 43 42 42 42 44 45 47 48 49 50 51 52 52 51 52 52 53 54 56 58 60 62 64 65 66 66 67 68 70 70 69 69 68
32 35 38 41 44 45 46 45 44 41 39 39 40 43 45 47 49 51 52 53 54 54 55 55 56 56 57 58 61 62 63 64 65 67 67 68 68 69 69 68 69 69 70
36 38 41 44 45 45 46 46 43 38 37 39 41 44 47 50 53 54 56 57 58 58 59 59 60 61 62 62 63 63 63 63 64 66 66 67 66 66 67 67 69 70 72
38 40 42 43 45 46 47 46 42 37 37 40 43 47 51 54 56 57 59 60 61 62 63 63 64 64 64 64 63 62 62 63 63 63 63 63 64 64 65 66 68 69 70
44 44 44 44 45 46 47 46 43 42 41 43 47 51 54 56 58 60 62 63 64 65 65 65 64 63 63 62 62 62 62 61 61 61 61 60 61 62 63 65 66 65 64
46 44 42 42 43 45 47 47 47 47 47 49 51 53 55 58 60 62 63 64 64 64 63 62 61 61 61 61 60 60 60 61 61 59 58 58 59 61 62 61 60 58 54
45 41 40 43 47 51 53 55 54 54 54 54 54 54 56 57 59 60 61 61 61 60 59 59 59 59 59 59 59 60 59 56 55 55 55 56 58 58 57 54 51 47 43
48 47 48 51 54 55 56 57 57 57 56 56 55 55 56 56 56 57 57 57 57 57 57 58 57 57 58 58 57 55 53 52 52 53 54 54 53 51 48 44 41 37 34
53 54 56 57 56 56 56 56 56 55 55 54 54 53 53 52 52 53 54 54 53 54 55 55 56 56 55 54 52 50 50 51 51 51 50 48 45 41 38 34 31 29 25
58 57 56 55 55 55 54 54 54 53 53 52 51 50 49 49 49 50 50 50 51 52 53 53 53 52 50 48 48 48 49 49 48 46 43 40 35 32 28 25 23 21 18
53 53 52 53 53 53 53 53 52 51 49 47 45 44 44 45 46 47 48 49 49 50 50 49 47 46 45 45 46 46 45 44 41 38 35 31 27 24 21 19 17 14 13
49 50 50 50 51 51 51 50 48 46 43 42 41 41 42 43 44 45 46 46 46 44 43 42 43 43 43 43 42 40 38 35 32 30 28 25 21 17 15 13 11 10 11
47 47 47 48 47 47 46 44 42 40 39 38 39 40 40 41 42 41 41 41 40 40 41 41 40 39 38 37 35 33 30 27 25 23 21 19 15 12 9 8 9 9 11
43 44 44 43 42 41 39 38 37 36 36 36 37 37 37 37 37 37 38 38 38 38 37 36 35 33 32 31 29 26 23 21 19 17 15 12 9 8 7 7 8 10 12
40 40 38 37 36 35 34 33 33 33 33 33 33 33 34 35 36 36 36 35 34 33 32 30 29 28 27 25 22 20 18 16 13 10 7 5 5 5 6 7 9 12 14
33 32 31 30 29 29 29 29 29 29 30 31 32 34 35 35 34 34 33 31 29 28 26 25 24 23 21 19 18 16 14 9 6 3 3 4 5 6 7 9 11 13 15
25 24 24 24 24 24 25 26 27 29 30 31 32 33 33 32 31 29 27 25 24 22 21 20 19 18 17 15 14 13 9 5 3 3 5 6 7 7 8 10 12 13 14
18 18 18 19 20 22 24 26 28 29 30 31 31 30 29 27 25 23 22 20 19 18 17 17 16 15 13 12 10 7 4 2 5 7 8 8 8 8 10 11 12 14 15

GEFSMW_500_meanwind_036.txt.gz
Wind_Speed
26 25 23 20 19 19 20 22 25 28 31 33 34 36 39 38 38 38 37 36 34 32 32 32 31 29 28 28 28 28 30 32 34 36 37 39 40 42 43 44 46 48 49
28 27 25 23 21 21 22 24 27 29 32 35 37 40 41 40 39 38 34 32 30 29 29 30 30 28 28 29 30 31 32 34 35 38 40 41 42 43 45 47 49 51 52
30 29 28 26 25 25 26 27 29 32 35 38 39 41 43 42 40 36 32 29 28 27 28 28 30 30 30 31 32 34 36 37 38 40 42 43 43 45 47 49 52 54 56
33 32 31 31 30 30 30 32 34 36 39 41 42 43 43 43 40 37 32 30 27 26 26 28 29 31 32 34 36 38 39 41 42 43 45 46 47 49 50 52 54 57 59
35 34 33 34 34 34 35 37 38 41 42 44 45 46 45 45 41 38 34 31 27 27 28 29 32 34 37 39 41 42 44 46 47 48 49 51 52 54 55 55 57 60 62
37 36 36 36 37 38 39 41 43 43 44 45 46 47 45 42 39 37 35 32 30 29 31 33 35 38 41 43 45 47 49 50 52 53 54 56 57 58 59 60 61 62 64
38 37 38 38 40 41 42 43 43 43 43 44 44 45 45 43 40 39 37 35 33 33 35 37 40 43 45 47 50 52 53 54 56 57 59 61 62 63 64 65 65 64 63
36 36 36 37 38 38 39 39 40 41 41 42 44 46 45 45 44 42 40 39 38 39 40 43 45 48 50 52 54 56 57 59 60 62 63 65 65 66 66 65 65 63 63
32 32 31 31 32 33 34 35 37 39 41 43 45 46 46 46 45 44 42 42 42 44 46 48 51 53 55 57 58 60 61 63 64 65 66 66 65 65 64 64 65 65 63
32 32 32 32 33 34 35 36 38 41 43 45 47 48 48 47 46 46 46 46 47 48 50 52 55 56 58 59 61 63 64 66 66 66 66 64 63 63 63 63 64 64 63
32 33 33 34 35 36 38 39 41 43 45 47 49 50 50 50 49 49 49 49 51 53 54 56 58 59 60 61 63 64 65 65 65 64 63 62 62 61 61 61 62 63 64
33 34 34 36 37 39 41 43 45 47 49 50 50 51 52 52 52 52 53 54 55 56 57 58 59 60 61 62 63 64 64 63 62 61 61 60 60 60 60 61 61 62 63
35 35 36 37 39 41 43 46 48 50 52 52 53 54 54 55 56 56 56 57 57 58 58 59 60 61 61 62 62 62 61 60 59 58 58 58 58 59 59 60 60 60 61
37 38 38 40 41 44 46 48 50 52 54 56 57 57 58 58 58 58 58 57 58 58 59 60 60 60 60 60 60 59 58 57 56 56 56 57 57 58 58 58 57 57 56
39 40 42 44 45 47 50 52 54 55 57 58 58 58 58 58 57 57 57 58 58 58 58 58 58 58 58 57 57 56 55 55 55 55 56 56 56 56 55 55 54 51 48
41 43 45 47 49 51 53 55 57 57 58 57 57 57 56 56 56 56 57 56 56 56 56 55 55 55 54 54 53 53 53 54 54 54 54 54 54 53 52 50 47 43 38
45 47 48 50 52 54 55 55 55 55 55 55 55 55 54 54 55 55 55 54 53 53 52 52 52 52 52 52 52 52 52 51 51 51 51 51 50 47 44 40 37 34 29
44 45 47 49 51 52 53 53 54 53 53 53 53 53 53 52 52 51 50 50 49 49 49 49 49 49 49 49 49 48 49 49 48 47 46 44 41 37 34 31 28 25 24
43 45 47 49 50 51 51 51 51 51 51 50 50 50 49 48 48 47 46 46 46 46 46 46 46 46 46 46 47 46 46 45 43 42 39 35 31 28 24 21 20 19 20
44 46 47 48 48 48 48 48 48 48 48 47 47 46 45 44 44 43 43 43 43 43 43 43 44 44 44 44 43 41 40 38 37 34 31 26 22 19 16 15 15 16 18
43 43 44 44 45 45 45 45 45 44 44 43 42 41 41 40 40 40 40 40 41 41 42 42 41 41 40 39 37 35 33 31 28 26 23 18 14 12 11 11 13 15 17
39 40 40 41 41 41 41 40 40 39 39 38 37 37 37 37 38 38 39 39 39 39 39 38 37 36 34 32 30 27 24 22 21 18 14 11 8 7 8 10 12 14 17
35 36 37 37 37 36 36 35 34 34 34 34 34 35 36 36 37 37 37 37 36 35 34 32 30 29 27 25 22 19 17 16 13 10 7 5 5 6 7 10 12 14 17
31 31 31 31 30 30 30 29 30 31 32 33 34 35 35 36 36 35 34 33 31 29 27 25 23 22 20 18 16 13 11 9 6 4 3 3 4 6 8 10 11 14 17
26 25 25 25 25 25 26 27 29 30 32 33 34 34 34 34 33 31 29 27 25 22 20 18 17 16 15 13 12 9 6 3 2 3 4 5 5 7 8 10 12 14 17
20 20 20 21 22 24 25 27 29 30 32 32 32 32 31 30 28 25 23 20 18 16 15 14 13 12 11 10 8 5 4 5 6 6 6 6 7 8 9 11 13 15 17

GEFSMW_500_meanwind_042.txt.gz
Wind_Speed
25 25 24 25 26 27 28 28 28 27 27 27 28 30 33 36 40 43 42 41 40 39 37 34 33 33 34 35 35 33 33 31 29 29 29 28 28 31 33 35 37 39 41
30 29 28 27 28 29 29 30 30 30 30 30 31 33 35 38 41 42 43 42 39 34 29 25 27 26 28 29 29 29 30 28 26 27 27 28 30 32 34 38 40 42 44
34 33 32 30 30 29 30 31 31 32 33 34 35 36 38 40 41 43 43 42 38 34 29 27 25 24 24 24 25 27 26 27 28 28 30 32 34 36 38 41 44 45 48
37 36 34 32 31 31 31 32 33 34 35 36 38 39 40 41 42 43 42 40 38 34 30 28 27 25 24 24 25 25 27 29 31 33 34 37 40 43 46 46 48 50 52
39 38 35 33 33 32 33 34 35 37 38 39 40 41 42 42 43 42 42 40 37 34 31 29 28 28 28 28 29 30 31 33 36 38 40 42 45 48 50 53 54 56 58
39 37 36 34 33 33 34 35 37 38 39 40 41 42 42 42 42 41 40 38 37 34 32 31 31 30 31 33 34 35 37 38 41 43 45 48 50 52 54 56 58 60 62
36 35 34 33 33 33 33 35 36 38 39 41 42 42 42 41 40 39 38 38 37 36 34 34 35 35 36 37 38 40 42 43 46 48 51 53 55 56 58 60 61 63 64
32 31 31 31 31 31 32 33 36 37 39 40 41 41 40 39 38 38 38 38 39 39 38 38 39 39 40 41 43 44 46 48 50 52 54 56 58 60 61 62 64 64 65
27 27 27 28 28 29 30 32 34 36 37 38 39 39 40 40 40 40 40 41 42 42 42 44 44 44 45 46 47 48 50 52 53 55 57 59 60 62 63 64 65 66 66
25 25 26 27 28 29 31 32 34 36 37 38 39 39 40 40 41 42 43 44 45 46 47 48 48 47 48 49 50 51 52 54 56 58 59 60 61 62 63 64 64 64 64
25 26 27 29 30 32 33 34 35 36 37 38 39 40 41 43 44 45 47 48 49 50 50 51 50 51 51 51 52 53 55 56 57 58 59 60 60 61 62 62 61 61 61
28 29 31 32 33 35 36 37 38 39 40 40 41 42 44 46 47 49 50 51 52 52 52 52 53 53 53 53 54 55 55 56 57 57 58 58 59 58 58 58 58 58 59
33 34 35 36 37 39 40 41 42 43 43 44 45 46 47 49 50 51 52 53 53 53 54 54 54 54 54 54 55 55 55 56 56 56 56 56 55 55 55 55 55 55 55
37 39 40 40 42 42 43 44 45 45 46 46 47 48 50 51 52 53 54 54 54 54 54 54 54 55 55 55 55 55 55 54 54 53 52 52 52 52 52 52 52 52 53
41 42 42 43 43 44 44 44 45 45 46 47 49 50 51 52 53 54 54 55 55 55 55 55 55 55 54 54 54 53 52 50 50 49 49 49 49 50 50 50 50 49 48
41 41 41 42 42 42 42 43 44 44 45 46 48 50 51 52 53 54 54 54 54 54 54 54 54 53 53 52 51 50 49 48 47 48 48 48 48 48 47 47 46 44 40
40 40 40 39 39 41 41 41 42 43 45 47 49 50 51 52 53 53 53 52 52 52 52 52 51 50 49 49 48 47 47 47 47 47 47 47 46 44 43 41 39 36 32
37 37 37 38 39 40 40 41 43 45 47 48 49 50 50 51 51 50 50 50 50 49 49 49 48 47 47 46 46 46 46 46 45 45 44 42 41 39 36 34 31 28 27
34 35 36 37 38 40 42 43 45 46 47 48 48 48 48 48 48 48 47 47 47 47 46 46 45 45 45 45 45 45 45 44 43 41 38 36 33 31 28 25 23 22 22
35 35 37 38 40 41 42 43 44 45 45 46 46 46 46 46 45 45 45 44 44 44 43 43 43 44 43 43 43 42 41 39 37 35 31 28 25 22 20 17 16 17 19
33 35 36 38 39 40 42 42 43 43 43 43 44 44 43 43 43 43 42 42 42 42 42 42 41 41 40 40 38 37 35 32 29 26 23 19 16 13 11 11 13 15 17
32 34 35 37 38 39 39 40 40 41 41 41 41 41 41 40 40 40 40 40 40 39 39 38 37 36 35 33 31 28 25 23 21 18 14 11 8 7 8 9 11 14 16
31 32 33 35 36 36 37 37 37 37 38 38 38 39 39 39 39 39 38 37 36 36 35 33 31 29 27 25 22 19 17 15 13 10 7 4 4 5 7 8 11 13 15
29 30 31 31 31 32 33 33 34 35 36 37 37 38 38 37 36 36 34 33 31 30 28 25 23 22 20 17 15 13 11 9 6 3 2 2 4 6 7 9 11 13 14
25 26 26 27 28 29 30 31 33 34 35 36 36 36 35 34 32 30 28 26 24 22 20 18 17 15 14 11 9 8 5 2 1 2 3 4 6 7 8 10 12 13 15
21 21 22 24 25 27 29 31 32 33 34 34 33 31 30 27 25 22 20 17 16 14 13 12 11 10 8 6 4 1 2 4 5 5 6 7 8 9 10 12 13 15 16

GEFSMW_500_meanwind_048.txt.gz
Wind_Speed
23 26 25 23 23 21 21 22 25 27 27 28 29 31 31 31 31 31 32 34 35 35 35 35 35 34 31 30 29 28 27 25 24 25 25 26 28 30 32 33 34 34 34
31 29 27 25 27 26 24 26 28 29 30 31 32 33 34 34 33 34 35 37 38 39 37 37 37 34 31 29 28 28 27 26 26 25 25 25 26 27 29 32 33 34 35
32 29 29 29 30 31 29 30 31 32 33 33 34 35 36 36 37 37 38 40 41 41 41 40 38 35 33 31 29 29 29 28 28 28 28 29 29 30 32 34 35 37 39
33 33 33 33 34 34 34 34 34 35 35 35 36 37 38 39 40 40 41 43 44 43 42 42 39 36 34 32 31 31 31 31 31 32 33 34 35 35 35 37 39 41 44
33 34 35 36 36 37 37 37 37 36 36 37 38 39 40 41 42 42 44 45 45 44 43 42 41 38 36 35 34 34 34 34 35 36 37 39 40 41 42 43 45 48 51
34 35 36 37 38 38 38 38 37 37 37 38 39 40 42 43 43 44 45 45 45 45 45 44 41 40 39 38 37 37 37 38 39 40 41 43 44 46 48 49 51 53 56
35 36 37 37 37 38 38 37 37 37 38 38 39 41 42 43 44 45 45 46 46 46 45 44 43 42 41 41 41 41 41 42 43 44 45 47 48 50 53 54 56 58 59
39 37 36 36 35 35 36 35 36 36 37 38 39 41 43 44 46 47 47 47 46 46 46 45 45 44 44 44 44 44 44 45 46 47 49 50 52 54 56 58 60 61 63
40 38 36 34 33 33 33 33 34 35 36 38 40 42 43 45 47 47 48 48 48 48 49 49 48 48 47 47 47 48 48 49 50 51 52 53 55 57 59 61 63 64 65
36 34 33 32 31 32 32 33 34 35 36 38 40 42 44 46 47 48 48 49 50 51 51 51 51 51 51 50 51 51 51 52 53 54 55 56 58 59 61 62 64 65 66
30 30 31 31 31 32 32 34 35 36 38 39 41 43 44 46 47 49 50 52 53 54 54 54 54 54 53 54 54 54 55 55 55 56 57 58 59 60 61 62 63 64 65
29 30 31 32 33 34 35 36 37 39 40 41 43 45 47 48 50 51 53 54 55 56 56 56 56 56 56 56 56 57 57 57 57 57 58 58 58 59 59 60 61 61 62
31 32 33 35 36 37 38 39 40 42 43 45 46 48 49 51 53 54 55 55 56 57 58 57 57 57 57 57 57 57 57 57 57 57 57 57 57 57 57 58 58 59 59
32 34 35 37 39 40 42 44 45 46 47 48 50 52 53 54 54 55 56 56 56 56 57 57 57 57 57 58 58 57 57 56 56 55 55 55 55 55 55 55 55 56 55
33 35 38 40 42 44 45 46 47 48 50 51 52 54 54 54 54 55 55 54 55 55 55 56 57 57 57 57 57 56 55 54 54 54 54 53 53 53 53 53 52 53 52
35 37 40 42 43 45 46 46 47 47 49 49 49 50 51 52 52 52 52 52 53 54 55 55 55 55 55 55 54 54 53 53 52 51 51 51 51 50 50 49 49 48 47
36 37 37 39 41 42 42 44 45 46 46 46 45 45 46 48 49 50 50 51 52 53 53 53 53 53 52 52 52 51 51 50 49 49 49 48 48 46 46 45 44 42 40
39 38 38 37 38 39 40 41 41 40 42 43 44 45 46 46 47 48 49 49 50 50 50 51 50 50 49 49 49 48 47 47 46 46 45 44 43 42 40 38 36 34 32
36 36 37 37 38 39 39 40 41 41 42 43 44 46 46 47 47 48 48 48 49 49 48 48 48 47 47 46 46 45 44 43 43 42 41 39 37 35 33 31 28 26 24
34 34 35 37 38 38 39 39 40 41 42 43 44 45 46 46 47 47 47 47 47 47 46 46 45 44 43 43 42 41 40 40 39 37 35 32 29 27 25 22 20 19 19
30 32 33 34 35 36 38 39 39 40 41 42 43 44 44 45 45 45 45 45 44 44 43 42 41 40 39 38 37 37 36 34 32 29 26 23 20 19 17 15 15 14 15
29 30 31 32 33 35 36 37 38 39 40 41 42 42 43 43 43 42 42 41 40 39 38 37 36 35 34 33 32 31 29 26 23 19 17 14 13 11 11 11 11 12 14
28 29 30 31 32 33 34 36 37 38 39 40 40 41 41 40 40 39 38 37 36 34 33 32 31 30 28 27 25 23 20 17 14 12 10 8 7 7 7 8 9 11 13
25 26 28 29 30 31 33 34 35 36 37 38 38 38 38 37 36 34 33 31 29 28 27 25 24 23 21 19 17 14 12 9 7 5 4 3 4 5 5 7 9 10 12
23 24 25 26 27 29 30 31 33 34 35 36 36 35 34 32 30 27 25 23 21 20 19 17 16 15 13 11 9 6 4 3 1 1 2 4 5 6 7 9 10 12 13
20 22 23 24 25 26 28 30 32 33 33 33 31 29 27 25 22 20 18 16 15 14 13 12 10 8 6 4 2 2 2 3 4 5 5 7 8 8 9 10 12 13 14